| time (UTC) | temp F | wind direction | speed MPH | gust MPH | rain 1hr in | rain 24hr in | rain mn in | humidity % | barometer mb |
| 20260502185621 | 65 | 298 | 5.0 | 11.0 | 0.00 | 0.00 | 0.00 | 27 | 1019.9 |
| 20260502184629 | 65 | 268 | 3.0 | 8.0 | 0.00 | 0.00 | 0.00 | 28 | 1020.0 |
| 20260502183639 | 65 | 284 | 6.0 | 9.0 | 0.00 | 0.00 | 0.00 | 29 | 1020.2 |
| 20260502181617 | 64 | 277 | 5.0 | 9.0 | 0.00 | 0.00 | 0.00 | 31 | 1020.3 |
| 20260502180631 | 63 | 286 | 4.0 | 8.0 | 0.00 | 0.00 | 0.00 | 33 | 1020.4 |
| 20260502163632 | 59 | 306 | 2.0 | 5.0 | 0.00 | 0.00 | 0.00 | 36 | 1020.7 |
| 20260502162619 | 58 | 327 | 2.0 | 6.0 | 0.00 | 0.00 | 0.00 | 36 | 1020.6 |
| 20260502161630 | 58 | 328 | 3.0 | 5.0 | 0.00 | 0.00 | 0.00 | 36 | 1020.7 |
| 20260502160619 | 58 | 313 | 3.0 | 5.0 | 0.00 | 0.00 | 0.00 | 36 | 1020.6 |
| 20260502151643 | 56 | 312 | 1.0 | 3.0 | 0.00 | 0.00 | 0.00 | 38 | 1020.5 |
| 20260502150630 | 56 | 312 | 0.0 | 4.0 | 0.00 | 0.00 | 0.00 | 45 | 1020.6 |
| 20260502130626 | 46 | 122 | 9.0 | 15.0 | 0.00 | 0.00 | 0.00 | 48 | 1020.3 |
| 20260502123652 | 46 | 119 | 10.0 | 18.0 | 0.00 | 0.00 | 0.00 | 48 | 1019.9 |
| 20260502122640 | 46 | 141 | 11.0 | 17.0 | 0.00 | 0.00 | 0.00 | 50 | 1019.8 |
| 20260502121630 | 46 | 119 | 11.0 | 19.0 | 0.00 | 0.00 | 0.00 | 49 | 1019.9 |
| 20260502120621 | 46 | 115 | 12.0 | 18.0 | 0.00 | 0.00 | 0.00 | 51 | 1019.8 |
| 20260502115625 | 47 | 153 | 10.0 | 17.0 | 0.00 | 0.00 | 0.00 | 49 | 1020.0 |
| 20260502114613 | 45 | 134 | 8.0 | 15.0 | 0.00 | 0.00 | 0.00 | 51 | 1020.0 |
| 20260502113644 | 44 | 95 | 10.0 | 17.0 | 0.00 | 0.00 | 0.00 | 56 | 1020.0 |
| 20260502112652 | 45 | 116 | 8.0 | 16.0 | 0.00 | 0.00 | 0.00 | 54 | 1020.0 |
| 20260502111621 | 45 | 130 | 10.0 | 16.0 | 0.00 | 0.00 | 0.00 | 56 | 1019.9 |
| 20260502110615 | 46 | 111 | 10.0 | 15.0 | 0.00 | 0.00 | 0.00 | 51 | 1020.0 |
| 20260502105634 | 45 | 90 | 9.0 | 16.0 | 0.00 | 0.00 | 0.00 | 51 | 1020.0 |
| 20260502104619 | 45 | 137 | 10.0 | 16.0 | 0.00 | 0.00 | 0.00 | 53 | 1020.0 |
| 20260502103628 | 45 | 108 | 10.0 | 17.0 | 0.00 | 0.00 | 0.00 | 51 | 1020.1 |
| 20260502102619 | 46 | 96 | 11.0 | 18.0 | 0.00 | 0.00 | 0.00 | 51 | 1020.0 |
| 20260502101629 | 45 | 153 | 12.0 | 20.0 | 0.00 | 0.00 | 0.00 | 53 | 1019.9 |
| 20260502100619 | 45 | 87 | 12.0 | 22.0 | 0.00 | 0.00 | 0.00 | 55 | 1019.8 |
| 20260502090645 | 47 | 136 | 10.0 | 18.0 | 0.00 | 0.00 | 0.00 | 49 | 1019.7 |
| 20260502070653 | 50 | 122 | 8.0 | 16.0 | 0.00 | 0.00 | 0.00 | 47 | 1020.0 |
| 20260502065616 | 50 | 115 | 8.0 | 17.0 | 0.00 | 0.00 | 0.00 | 42 | 1020.0 |
| 20260502064626 | 50 | 107 | 11.0 | 17.0 | 0.00 | 0.00 | 0.00 | 44 | 1019.5 |
| 20260502063616 | 50 | 148 | 13.0 | 19.0 | 0.00 | 0.00 | 0.00 | 45 | 1019.5 |
| 20260502062645 | 51 | 117 | 11.0 | 17.0 | 0.00 | 0.00 | 0.00 | 43 | 1019.5 |
| 20260502060653 | 51 | 82 | 12.0 | 18.0 | 0.00 | 0.00 | 0.00 | 40 | 1019.3 |
| 20260502055613 | 51 | 84 | 10.0 | 17.0 | 0.00 | 0.00 | 0.00 | 41 | 1019.3 |
| 20260502054641 | 51 | 135 | 11.0 | 18.0 | 0.00 | 0.00 | 0.00 | 42 | 1019.4 |
| 20260502053628 | 51 | 142 | 11.0 | 16.0 | 0.00 | 0.00 | 0.00 | 42 | 1019.3 |
| 20260502052619 | 52 | 89 | 11.0 | 17.0 | 0.00 | 0.00 | 0.00 | 41 | 1019.2 |
| 20260502051627 | 52 | 98 | 11.0 | 17.0 | 0.00 | 0.00 | 0.00 | 39 | 1019.1 |
| 20260502050636 | 52 | 152 | 10.0 | 18.0 | 0.00 | 0.00 | 0.00 | 40 | 1019.0 |
| 20260502045617 | 52 | 116 | 11.0 | 19.0 | 0.00 | 0.00 | 0.00 | 41 | 1019.0 |
| 20260502044631 | 53 | 88 | 11.0 | 18.0 | 0.00 | 0.00 | 0.00 | 40 | 1019.1 |
| 20260502043621 | 53 | 141 | 10.0 | 16.0 | 0.00 | 0.00 | 0.00 | 39 | 1019.1 |
| 20260502042612 | 53 | 105 | 11.0 | 18.0 | 0.00 | 0.00 | 0.00 | 39 | 1019.0 |
| 20260502041623 | 54 | 96 | 10.0 | 17.0 | 0.00 | 0.00 | 0.00 | 38 | 1019.0 |
| 20260502040617 | 55 | 123 | 10.0 | 15.0 | 0.00 | 0.00 | 0.00 | 36 | 1019.0 |
| 20260502035616 | 56 | 89 | 7.0 | 12.0 | 0.00 | 0.00 | 0.00 | 35 | 1018.9 |
| 20260502034625 | 55 | 98 | 9.0 | 13.0 | 0.00 | 0.00 | 0.00 | 37 | 1018.8 |
| 20260502033612 | 55 | 101 | 9.0 | 13.0 | 0.00 | 0.00 | 0.00 | 37 | 1018.7 |
| 20260502032624 | 55 | 138 | 7.0 | 11.0 | 0.00 | 0.00 | 0.00 | 38 | 1018.5 |
| 20260502031612 | 55 | 89 | 8.0 | 13.0 | 0.00 | 0.00 | 0.00 | 38 | 1018.5 |
| 20260502030621 | 56 | 115 | 5.0 | 11.0 | 0.00 | 0.00 | 0.00 | 37 | 1018.3 |
| 20260502025621 | 56 | 80 | 8.0 | 11.0 | 0.00 | 0.00 | 0.00 | 37 | 1018.2 |
| 20260502024613 | 58 | 120 | 6.0 | 10.0 | 0.00 | 0.00 | 0.00 | 34 | 1018.1 |
| 20260502023640 | 61 | 65 | 4.0 | 9.0 | 0.00 | 0.00 | 0.00 | 29 | 1018.1 |
| 20260502022627 | 63 | 92 | 7.0 | 11.0 | 0.00 | 0.00 | 0.00 | 26 | 1017.9 |
| 20260502021616 | 63 | 74 | 5.0 | 10.0 | 0.00 | 0.00 | 0.00 | 25 | 1017.9 |
| 20260502020629 | 64 | 64 | 5.0 | 11.0 | 0.00 | 0.00 | 0.00 | 25 | 1017.8 |
| 20260502015612 | 65 | 51 | 4.0 | 9.0 | 0.00 | 0.00 | 0.00 | 24 | 1017.7 |
| 20260502014621 | 65 | 64 | 3.0 | 11.0 | 0.00 | 0.00 | 0.00 | 23 | 1017.7 |
| 20260502013629 | 66 | 92 | 3.0 | 10.0 | 0.00 | 0.00 | 0.00 | 22 | 1017.7 |
| 20260502012620 | 67 | 12 | 4.0 | 9.0 | 0.00 | 0.00 | 0.00 | 22 | 1017.6 |
| 20260502011628 | 67 | 295 | 1.0 | 4.0 | 0.00 | 0.00 | 0.00 | 24 | 1017.6 |
| 20260502010615 | 66 | 303 | 5.0 | 8.0 | 0.00 | 0.00 | 0.00 | 23 | 1017.6 |
| 20260502005613 | 66 | 287 | 4.0 | 9.0 | 0.00 | 0.00 | 0.00 | 23 | 1017.7 |
| 20260502004625 | 66 | 292 | 7.0 | 10.0 | 0.00 | 0.00 | 0.00 | 23 | 1017.7 |
| 20260502003612 | 67 | 281 | 6.0 | 9.0 | 0.00 | 0.00 | 0.00 | 23 | 1017.6 |
| 20260502002620 | 67 | 291 | 6.0 | 10.0 | 0.00 | 0.00 | 0.00 | 23 | 1017.7 |
| 20260502001615 | 67 | 318 | 7.0 | 13.0 | 0.00 | 0.00 | 0.00 | 22 | 1017.7 |
| 20260502000626 | 67 | 319 | 4.0 | 10.0 | 0.00 | 0.00 | 0.00 | 23 | 1017.7 |
| 20260501235626 | 67 | 323 | 5.0 | 10.0 | 0.00 | 0.00 | 0.00 | 23 | 1017.7 |
| 20260501234614 | 67 | 293 | 3.0 | 9.0 | 0.00 | 0.00 | 0.00 | 23 | 1017.8 |
| 20260501233623 | 67 | 313 | 4.0 | 10.0 | 0.00 | 0.00 | 0.00 | 24 | 1017.8 |
| 20260501232636 | 67 | 337 | 1.0 | 8.0 | 0.00 | 0.00 | 0.00 | 23 | 1017.9 |
| 20260501231622 | 66 | 309 | 4.0 | 8.0 | 0.00 | 0.00 | 0.00 | 23 | 1017.9 |
| 20260501230629 | 66 | 338 | 6.0 | 11.0 | 0.00 | 0.00 | 0.00 | 23 | 1018.0 |
| 20260501225630 | 66 | 329 | 6.0 | 10.0 | 0.00 | 0.00 | 0.00 | 23 | 1018.1 |
| 20260501224624 | 66 | 275 | 4.0 | 8.0 | 0.00 | 0.00 | 0.00 | 22 | 1018.2 |
| 20260501223613 | 66 | 293 | 5.0 | 9.0 | 0.00 | 0.00 | 0.00 | 23 | 1018.3 |
| 20260501222622 | 66 | 344 | 2.0 | 8.0 | 0.00 | 0.00 | 0.00 | 24 | 1018.5 |
| 20260501221614 | 65 | 329 | 5.0 | 9.0 | 0.00 | 0.00 | 0.00 | 23 | 1018.6 |
| 20260501220621 | 65 | 336 | 2.0 | 12.0 | 0.00 | 0.00 | 0.00 | 25 | 1018.7 |
| 20260501215643 | 66 | 333 | 1.0 | 7.0 | 0.00 | 0.00 | 0.00 | 23 | 1018.8 |
| 20260501214613 | 66 | 336 | 4.0 | 11.0 | 0.00 | 0.00 | 0.00 | 24 | 1018.9 |
| 20260501213623 | 65 | 288 | 6.0 | 12.0 | 0.00 | 0.00 | 0.00 | 24 | 1018.9 |
| 20260501212617 | 64 | 300 | 8.0 | 20.0 | 0.00 | 0.00 | 0.00 | 25 | 1019.1 |
| 20260501211628 | 64 | 287 | 4.0 | 8.0 | 0.00 | 0.00 | 0.00 | 24 | 1019.1 |
| 20260501210640 | 64 | 256 | 5.0 | 10.0 | 0.00 | 0.00 | 0.00 | 26 | 1019.2 |
| 20260501205620 | 64 | 293 | 8.0 | 12.0 | 0.00 | 0.00 | 0.00 | 25 | 1019.1 |
| 20260501204615 | 63 | 176 | 2.0 | 8.0 | 0.00 | 0.00 | 0.00 | 28 | 1019.2 |
| 20260501203625 | 62 | 311 | 3.0 | 13.0 | 0.00 | 0.00 | 0.00 | 26 | 1019.4 |
| 20260501202616 | 62 | 201 | 4.0 | 10.0 | 0.00 | 0.00 | 0.00 | 26 | 1019.3 |
| 20260501201631 | 62 | 317 | 8.0 | 12.0 | 0.00 | 0.00 | 0.00 | 26 | 1019.4 |
| 20260501200622 | 62 | 184 | 4.0 | 13.0 | 0.00 | 0.00 | 0.00 | 26 | 1019.4 |
| 20260501195623 | 62 | 301 | 9.0 | 14.0 | 0.00 | 0.00 | 0.00 | 26 | 1019.4 |
| 20260501194652 | 62 | 266 | 2.0 | 9.0 | 0.00 | 0.00 | 0.00 | 26 | 1019.5 |
| 20260501193618 | 62 | 148 | 2.0 | 6.0 | 0.00 | 0.00 | 0.00 | 26 | 1019.6 |
| 20260501192630 | 62 | 167 | 4.0 | 6.0 | 0.00 | 0.00 | 0.00 | 26 | 1019.7 |
| 20260501191616 | 61 | 290 | 1.0 | 5.0 | 0.00 | 0.00 | 0.00 | 25 | 1019.7 |
| 20260501190645 | 61 | 180 | 6.0 | 8.0 | 0.00 | 0.00 | 0.00 | 26 | 1019.8 |